Preview of NWS' New Version of Forecast
This preview is not operational and should not be used for support decisions.
Latest weather observations around

Cincinnati, Cincinnati Municipal Airport Lunken Field (KLUK)

Using English Units (Switch to International System of Units)
Date/ Time (EST) Wind (mph) Vis. (mi) Weather Sky Cond. Temp (°F) Rel. Humidity Wind Chill (°F) Heat Index (°F) Pressure Precip. (in)
Air Dwpt 6 hour Altimeter (inHg) Sea level (inHg) 1 hr 3 hr 6 hr
Max Min
Feb 25 19:53 SW 5 10 Clear CLR 44 32     62% 41   30.14 30.14      
Feb 25 18:53 WSW 8 10 Clear CLR 46 32     58% 42   30.12 30.12      
Feb 25 17:53 WSW 10 10 Clear CLR 47 35     63% 42   30.1 30.09      
Feb 25 16:53 SW 8 10 Clear CLR 49 34     56% 45   30.07 30.07      
Feb 25 15:53 SW 11 10 Clear CLR 49 33     54% 44   30.07 30.06      
Feb 25 14:53 6 10 Clear CLR 50 37     61% 48   30.06 30.05      
Feb 25 13:53 SW 8 10 Clear CLR 50 39     66% 47   30.06 30.06      
Feb 25 12:53 WSW 10 10 Clear CLR 49 35     59% 45   30.06 30.06      
Feb 25 11:53 WSW 13 10 Clear CLR 49 38     66% 44   30.06 30.06      
Feb 25 10:53 WSW 8 10 Mostly Clear FEW027 48 38     68% 44   30.05 30.04      
Feb 25 09:53 W 13 10 Clear CLR 47 38     71% 41   30.02 30.02      
Feb 25 08:53 W 14 10 Clear CLR 47 39     74% 41   29.99 29.98      
Feb 25 07:53 W 8 10 Mostly Cloudy FEW027 BKN065 49 42     77% 45   29.94 29.94      
Feb 25 06:53 W 11 10 Cloudy FEW028 OVC050 54 47     77%     29.88 29.88     0
Feb 25 05:53   10 Mostly Cloudy FEW033 BKN042 BKN055 58 49     72%     29.81 29.81 0    
Feb 25 05:11 WSW 17 10 Cloudy FEW019 BKN048 OVC060 60 54     80%     29.77   0    
Feb 25 04:53 WSW 15 7 Light Rain SCT021 BKN025 OVC045 60 57     90%     29.75 29.75 0    
Feb 25 04:21 SSW 14 10 Cloudy BKN022 BKN032 OVC040 60 57     90%     29.73        
Feb 25 03:53 SSW 18 10 Mostly Cloudy FEW028 BKN033 60 56     86%     29.72 29.72   0  
Feb 25 02:53 SSW 18 10 Mostly Cloudy SCT039 SCT046 BKN095 59 56     90%     29.69 29.69 0    
Feb 25 01:53 S 17 10 Light Rain FEW011 FEW070 OVC090 58 57     97%     29.74 29.73 0    
Feb 25 00:53 S 15 6 Rain and Fog/Mist OVC085 58 57     97%     29.75 29.75 0   1
Feb 25 00:25 SSW 11 8 Rain SCT015 BKN048 OVC090 58 56     93%     29.76   0    
Feb 24 23:53 WSW 13 4 Heavy Rain and Fog/Mist SCT013 BKN027 OVC055 56 55     97%     29.75 29.75 0    
Feb 24 23:45 W 13 2.5 Heavy Rain and Fog/Mist FEW005 BKN027 OVC070 56 56     100%     29.74   0    
Feb 24 23:42 W 11 2 Heavy Rain and Fog/Mist BKN011 BKN023 OVC065 56 55     97%     29.73   0    
Feb 24 23:35   3 Rain and Fog/Mist FEW006 BKN013 OVC050 56 55     97%     29.75   0    
Feb 24 23:28 WSW 6 4 Light Rain and Fog/Mist SCT013 BKN024 OVC070 55 55     100%     29.71   0    
Feb 24 23:06 Calm 9 Light Rain FEW008 BKN050 OVC090 53 53     100%     29.72   0    
Feb 24 22:53 NE 5 7 Light Rain FEW010 BKN049 OVC100 52 52     100%     29.73 29.73 0    
Feb 24 21:53 E 7 6 Light Rain and Fog/Mist FEW010 BKN022 OVC026 52 52     100%     29.78 29.78 0 1  
Feb 24 21:16 NNW 8 2.5 Heavy Rain and Fog/Mist BKN005 BKN016 OVC025 52 52     100%     29.82   0    
Feb 24 20:53 NE 7 1.5 Heavy Rain and Fog/Mist BKN008 OVC021 52 52     100%     29.83 29.83 1    
Feb 24 20:39 Calm 2 Heavy Rain and Fog/Mist BKN008 OVC037 52 52     100%     29.86   0    
Feb 24 19:53 Calm 4 Rain and Fog/Mist OVC011 53 52     96%     29.88 29.88 0    
Feb 24 18:53 NNE 7 6 Light Rain and Fog/Mist OVC011 53 52     96%     29.91 29.91 0   0
Feb 24 18:35 N 7 3 Rain and Fog/Mist OVC013 53 52     96%     29.92   0    
Feb 24 17:53 ENE 3 1.5 Rain and Fog/Mist FEW017 BKN033 OVC044 53 52     96%     29.92 29.91 0    
Feb 24 17:45 ENE 6 1.75 Heavy Rain and Fog/Mist SCT020 BKN033 OVC044 54 52     93%     29.92   0    
Feb 24 17:09 E 5 3 Light Rain and Fog/Mist FEW021 BKN050 OVC080 55 52     89%     29.93   0    
Feb 24 16:53 E 9 10 Light Rain BKN021 OVC055 55 52     89%     29.94 29.94 0    
Feb 24 16:30 N 6 10 Cloudy SCT019 BKN024 OVC060 56 52     87%     29.97   0    
Feb 24 15:53 Calm 10 Light Rain OVC060 57 52     83%     29.96 29.96 0 0  
Feb 24 14:53 ESE 6 10 Cloudy SCT017 BKN075 OVC110 56 51     84%     29.96 29.96      
Feb 24 13:53 NE 6 10 Cloudy BKN012 OVC075 54 51     90%     30 30      
Feb 24 13:50 3 10 Cloudy SCT012 OVC075 55 52     88%     30        
Feb 24 12:53 NE 6 10 Cloudy OVC011 52 50     93%     30.05 30.05     0
Feb 24 12:25 ENE 8 10 Cloudy BKN011 OVC075 51 49     92%     30.07        
Feb 24 11:53 N 8 10 Cloudy FEW008 SCT012 OVC065 51 49     92%     30.08 30.08 0    
Feb 24 11:51 NNE 7 10 Cloudy FEW008 SCT012 OVC065 50 48     94% 47   30.08   0    
Feb 24 11:15 E 6 4 Light Rain and Fog/Mist SCT040 OVC050 48 47     96% 45   30.12   0    
Feb 24 11:06 NE 8 2.5 Rain and Fog/Mist BKN036 OVC048 48 47     96% 44   30.12   0    
Feb 24 10:53 NE 8 1.5 Heavy Rain and Fog/Mist OVC031 48 47     96% 44   30.14 30.14 0    
Feb 24 10:45 N 10 2 Heavy Rain and Fog/Mist OVC031 49 47     93% 45   30.15   0    
Feb 24 09:53 NNE 9 6 Light Rain and Fog/Mist FEW011 OVC027 48 47     96% 44   30.12 30.12 0 0  
Feb 24 09:33 N 8 3 Light Rain and Fog/Mist FEW011 OVC027 48 47     96% 44   30.12   0    
Feb 24 09:25 NNE 8 3 Light Rain and Fog/Mist FEW009 BKN030 OVC039 48 48     100% 44   30.12   0    
Feb 24 09:18 NE 8 3 Light Rain and Fog/Mist FEW009 BKN027 OVC041 48 48     100% 44   30.11   0    
Feb 24 08:53 N 8 3 Light Rain and Fog/Mist SCT010 OVC026 49 48     97% 45   30.13 30.13 0    
Feb 24 07:53 NE 10 7 Light Rain FEW010 BKN028 OVC042 49 48     97% 45   30.12 30.12 0    
Feb 24 07:46 E 7 6 Light Rain and Fog/Mist FEW010 BKN029 OVC040 49 48     97% 46   30.13   0    
Feb 24 07:27 NE 11 7 Light Rain FEW011 SCT029 OVC042 49 48     97% 44   30.11   0    
Feb 24 07:20 NE 11 5 Light Rain and Fog/Mist SCT011 BKN029 OVC044 49 48     97% 44   30.11   0    
Feb 24 06:53 NE 10 7 Light Rain OVC014 49 48     97% 45   30.13 30.13 0   0
Feb 24 06:32 N 7 7 Light Rain SCT009 OVC018 50 49     96% 47   30.15   0    
Feb 24 06:21 N 8 8 Light Rain SCT012 OVC018 50 48     93% 47   30.15   0    
Feb 24 05:53 NNE 8 6 Light Rain and Fog/Mist OVC010 50 49     96% 47   30.15 30.14 0    
Feb 24 05:08 N 8 7 Cloudy BKN009 OVC015 50 49     96% 47   30.15        
Feb 24 04:53 NNE 7 8 Cloudy OVC010 50 49     96% 47   30.14 30.14      
Feb 24 04:35 NNE 6 8 Cloudy OVC010 50 50     100% 48   30.14        
Feb 24 04:23 NE 7 7 Cloudy OVC009 50 50     100% 47   30.14        
Feb 24 03:53 N 3 7 Cloudy BKN010 BKN018 OVC050 51 50     96%     30.16 30.16 0 0  
Feb 24 03:51 N 3 7 Light Rain SCT010 BKN018 OVC050 52 50     94%     30.16   0    
Feb 24 03:14 N 9 5 Light Rain and Fog/Mist SCT016 BKN060 OVC080 51 51     100%     30.16   0    
Feb 24 02:53 7 6 Light Rain and Fog/Mist FEW011 BKN016 OVC080 52 51     97%     30.2 30.19 0    
Feb 24 02:46 NNE 8 5 Rain and Fog/Mist SCT014 BKN055 OVC080 52 51     97%     30.17   0    
Feb 24 02:13 NE 3 10 Cloudy BKN016 OVC095 53 51     93%     30.16        
Feb 24 01:53 NE 5 10 Cloudy BKN085 OVC100 53 51     93%     30.17 30.16 0    
Feb 24 00:53 Calm 10 Cloudy SCT016 OVC100 54 52     93%     30.19 30.19      
Feb 24 00:28 NNW 5 10 Cloudy OVC015 53 52     96%     30.2        
Feb 24 00:11 NNW 3 10 Mostly Cloudy BKN014 BKN032 53 52     96%     30.19        
Feb 23 23:53 Calm 10 Mostly Cloudy BKN033 52 52     100%     30.2 30.19      
Feb 23 22:53 Calm 10 Mostly Cloudy BKN033 54 52     93%     30.21 30.21      
Feb 23 21:53 Calm 10 Mostly Cloudy FEW025 BKN041 56 54     93%     30.22 30.22      
Feb 23 20:53 Calm 10 Partly Cloudy SCT120 57 54     89%     30.21 30.21      
Feb 23 19:53 7 10 Cloudy OVC020 58 55     90%     30.23 30.23      
Feb 23 18:53 SW 10 10 Cloudy BKN018 OVC040 59 55     87%     30.23 30.23     0
Feb 23 18:05 W 10 10 Mostly Cloudy BKN014 BKN039 59 56     90%     30.23        
Feb 23 17:53 W 11 10 Cloudy OVC016 60 56     86%     30.24 30.24      
Feb 23 17:00 WNW 6 10 Mostly Cloudy SCT019 BKN026 BKN110 63 60     90%     30.21        
Feb 23 16:53 W 9 10 Mostly Cloudy SCT019 SCT026 BKN120 64 60     87%     30.2 30.2      
Feb 23 15:53 WSW 9 10 Cloudy BKN041 OVC047 64 60     87%     30.21 30.21 0 0  
Feb 23 15:42 WSW 9 10 Cloudy FEW016 SCT021 OVC043 64 61     90%     30.21   0    
Feb 23 14:53 WSW 9 10 Cloudy BKN017 BKN027 OVC100 65 62     90%     30.2 30.2 0    
Feb 23 13:53 SW 17 10 Cloudy OVC016 64 61     90%     30.22 30.22      
Feb 23 12:53 SW 11 10 Cloudy OVC017 64 61     90%     30.22 30.22 0   0
Feb 23 11:53 SW 15 10 Light Rain BKN016 BKN025 OVC048 63 60     90%     30.25 30.24 0    
Feb 23 11:14 SSW 16 10 Light Rain BKN016 BKN027 OVC042 62 59     90%     30.24   0    
Feb 23 10:53 SSW 16 9 Light Rain BKN014 BKN042 OVC065 61 59     93%     30.23 30.23 0    
Feb 23 10:31 SSW 14 8 Light Rain SCT016 BKN040 OVC060 61 59     93%     30.23   0    
Feb 23 09:53 WSW 6 10 Cloudy OVC014 57 56     96%     30.23 30.23 0 0  
Feb 23 08:53 Calm 9 Cloudy BKN012 OVC019 52 52     100%     30.23 30.23 0    
Feb 23 07:53 SW 5 4 Light Rain and Fog/Mist OVC005 49 49     100% 47   30.22 30.22 0    
Feb 23 06:50 Calm 3 Rain and Fog/Mist BKN005 BKN046 OVC070 47 47     100%     30.23 30.24 0   1
Feb 23 06:49 Calm 3 Rain and Fog/Mist BKN005 OVC046 46 46     100%     30.24   0    
Feb 23 06:30 Calm 2 Heavy Rain and Fog/Mist SCT005 BKN040 OVC070 47 47     100%     30.26   0    
Feb 23 06:19 WSW 3 1.25 Heavy Rain and Fog/Mist SCT005 OVC031 47 47     100% 46   30.27   0    
Feb 23 06:11 7 1.75 Heavy Rain and Fog/Mist BKN005 OVC034 47 47     100% 44   30.27   0    
Feb 23 05:53 Calm 2 Heavy Rain and Fog/Mist SCT007 BKN045 OVC070 47 47     100%     30.27 30.27 0    
Feb 23 05:39 Calm 3 Rain and Fog/Mist SCT007 BKN038 OVC080 47 47     100%     30.27   0    
Feb 23 05:29 Calm 2.5 Rain and Fog/Mist SCT007 BKN029 OVC075 47 47     100%     30.28   0    
Feb 23 05:25 Calm 3 Rain and Fog/Mist BKN007 BKN039 OVC055 47 47     100%     30.29   0    
Feb 23 05:23 S 3 3 Rain and Fog/Mist SCT007 BKN037 OVC055 47 47     100% 46   30.29   0    
Feb 23 05:13 NE 7 2 Heavy Rain and Fog/Mist FEW009 BKN024 OVC080 47 47     100% 44   30.26   0    
Feb 23 05:00 Calm 1.5 Heavy Rain and Fog/Mist FEW005 BKN011 OVC022 47 47     100%     30.29   0    
Feb 23 04:53 Calm 1.5 Heavy Rain and Fog/Mist SCT005 OVC009 46 46     100%     30.29 30.29 0    
Feb 23 04:50 Calm 2 Heavy Rain and Fog/Mist SCT005 OVC009 46 46     100%     30.3   0    
Feb 23 04:31 Calm 4 Light Rain and Fog/Mist OVC005 47 47     100%     30.29   0    
Feb 23 04:00 Calm 5 Light Rain and Fog/Mist OVC004 47 46     97%     30.3   0    
Feb 23 03:53 Calm 5 Fog/Mist OVC005 47 46     97%     30.31 30.32 0 0  
Feb 23 02:53 Calm 5 Fog/Mist OVC005 46 46     100%     30.33 30.33      
Feb 23 01:53 Calm 4 Fog/Mist OVC005 46 46     100%     30.34 30.34      
Feb 23 00:53 Calm 3 Fog/Mist OVC006 46 46     100%     30.37 30.37      
Feb 22 23:53 Calm 6 Fog/Mist OVC007 46 46     100%     30.38 30.38      
Feb 22 23:26 NNE 3 4 Fog/Mist OVC008 46 46     100% 45   30.38        
Feb 22 23:17 NE 3 2.5 Fog/Mist OVC008 46 46     100% 45   30.38        
Feb 22 23:02 Calm 1.5 Fog/Mist OVC006 45 45     100%     30.38        
Feb 22 22:53 Calm 2 Fog/Mist OVC006 46 46     100%     30.39 30.4      
Feb 22 22:49 ENE 3 2.5 Fog/Mist OVC006 45 45     100% 43   30.4        
Feb 22 22:22 N 3 4 Fog/Mist OVC005 45 45     100% 44   30.4        
Feb 22 22:00 NNE 3 2 Fog/Mist OVC005 45 45     100% 44   30.4        
Feb 22 21:53 NNE 3 2 Fog/Mist OVC004 45 45     100% 44   30.4 30.4      
Feb 22 21:37 NE 5 2 Fog/Mist OVC004 45 45     100% 43   30.4        
Feb 22 21:02 NNE 5 1.75 Fog/Mist OVC004 45 45     100% 43   30.41        
Feb 22 20:53 NNE 5 2.5 Fog/Mist OVC005 45 45     100% 43   30.41 30.41      
Jun 11 12:53   10 Mostly Clear FEW060 86 64     48%   87 30.12 30.11      
Jun 10 18:53 S 14 10 Clear CLR 82 62     51%   83 29.99 29.97      
Jun 10 15:53 SSW 14 10 Clear CLR 84 62     48%   85 30.01 30      
Jun 10 14:53 SSW 10 10 Clear CLR 83 58     43%   83 30.02 30.01      
Jun 10 11:53 SSW 11 10 Clear CLR 80 61     52%   81 30.05 30.04      
Notice The following observation data may not be complete
Jun 09 06:24 Calm 0.75 Fog/Mist CLR   49      %     29.93        
Jun 08 05:14 Calm 4 Fog/Mist CLR 50 50     100%     30.02        
Jun 07 12:53 NE 9 10 Clear   64 54     70%     30.03 30.02      
Jun 05 17:37 SSW 6 10 Clear CLR 68 65     90%     29.73   0